Change the Weather History Date:

Sunday, May 11, 2014

  Actual Average Record
Temperature  
Mean Temperature 89 °F -  
Max Temperature 99 °F - - ()
Min Temperature 79 °F - - ()
Cooling Degree Days 24    
Growing Degree Days 39 (Base 50)    
Moisture  
Dew Point 56 °F    
Average Humidity 32    
Maximum Humidity 55    
Minimum Humidity 15    
Precipitation  
Precipitation 0.08 in - - ()
Sea Level Pressure  
Sea Level Pressure 29.72 in    
Wind  
Wind Speed 4 mph ()    
Max Wind Speed 20 mph    
Max Gust Speed 23 mph    
Visibility 1.8 miles    
Events Rain , Thunderstorm    
T = Trace of Precipitation, MM = Missing Value Source: Averaged Metar Reports

Daily Weather History Graph

Daily Weather History Graph

Search for Another Location

Airport or City:

Trip Planner

Search our weather history database for the weather conditions in past years. The results will help you decide how hot, cold, wet, or windy it might be!

Date:

Astronomy

May. 11, 2014 Rise Set
Actual Time 5:41 AM IST 7:04 PM IST
Civil Twilight 5:16 AM IST 7:29 PM IST
Nautical Twilight 4:47 AM IST 7:59 PM IST
Astronomical Twilight 4:16 AM IST 8:30 PM IST
Moon 3:51 PM IST (5/11) 3:10 AM IST (5/11)
Length of Visible Light 14h 13m
Length of Day
13h 23m
Waxing Gibbous, 86% of the Moon is Illuminated
May 11
Waxing Gibbous
May 15
Full
May 21
Last Quarter
May 29
New
Jun 6
First Quarter

Hourly Weather History & Observations

Time (IST) Temp. Heat Index Dew Point Humidity Pressure Visibility Wind Dir Wind Speed Gust Speed Precip Events Conditions
12:00 AM 87.8 °F - 48.2 °F 25% 29.71 in 1.6 mi Variable 2.3 mph - N/A   Haze
1:00 AM 86.0 °F - 48.2 °F 27% 29.71 in 1.6 mi Variable 3.5 mph - N/A   Haze
2:00 AM 86.0 °F - 51.8 °F 31% 29.71 in 1.6 mi Variable 6.9 mph - N/A   Haze
2:30 AM 85 °F - 50 °F 20% 29.60 in 1 mi NW 4.6 mph - -   Haze
3:00 AM 84.2 °F - 50.0 °F 30% 29.71 in 1.6 mi WNW 4.6 mph - N/A   Haze
4:00 AM 82.4 °F - 50.0 °F 32% 29.71 in 1.6 mi Variable 2.3 mph - N/A   Haze
5:00 AM 82.4 °F - 51.8 °F 35% 29.71 in 1.6 mi Calm Calm - N/A   Haze
5:30 AM 82 °F - 52 °F 25% 29.66 in 1 mi 2.3 mph - -   Haze
5:30 AM 82.4 °F - 51.8 °F 35% 29.74 in 1.6 mi Variable 2.3 mph - N/A   Haze
6:00 AM 82.4 °F - 51.8 °F 35% 29.74 in 1.6 mi WNW 5.8 mph - N/A   Haze
7:00 AM 82.4 °F 81.4 °F 53.6 °F 37% 29.77 in 1.6 mi Calm Calm - N/A   Haze
7:30 AM 84.2 °F - 51.8 °F 33% 29.80 in 1.6 mi WNW 5.8 mph - N/A   Haze
8:30 AM 89 °F - 57 °F 24% 29.70 in 1 mi WNW 9.2 mph - -   Haze
9:00 AM 87.8 °F - 51.8 °F 29% 29.80 in 1.9 mi WNW 9.2 mph - N/A   Haze
9:30 AM 87.8 °F 85.7 °F 53.6 °F 31% 29.80 in 1.9 mi West 10.4 mph - N/A   Haze
10:00 AM 91.4 °F 89.1 °F 53.6 °F 28% 29.80 in 2.5 mi WSW 8.1 mph - N/A   Haze
11:00 AM 91.4 °F 89.1 °F 53.6 °F 28% 29.80 in 2.5 mi Variable 11.5 mph - N/A   Haze
11:30 AM 95 °F - 57 °F 19% 29.68 in 2 mi West 6.9 mph - -   Haze
12:00 PM 93.2 °F 90.8 °F 53.6 °F 26% 29.80 in 2.5 mi WNW 11.5 mph 23.0 mph N/A   Haze
1:00 PM 93.2 °F 90.8 °F 53.6 °F 26% 29.77 in 2.5 mi Variable 8.1 mph - N/A   Haze
2:00 PM 95.0 °F 92.7 °F 53.6 °F 25% 29.74 in 2.5 mi Variable 10.4 mph - N/A   Haze
2:30 PM 98 °F - 54 °F 15% 29.62 in 2 mi NW 6.9 mph - -   Haze
4:00 PM 82.4 °F 83.4 °F 62.6 °F 51% 29.74 in 1.2 mi Variable 19.6 mph - N/A Rain , Thunderstorm Widespread Dust
5:00 PM 86.0 °F 88.2 °F 66.2 °F 51% 29.68 in 2.5 mi ENE 6.9 mph - N/A   Haze
5:30 PM 89 °F - 61 °F 29% 29.61 in 2 mi 2.3 mph - -   Haze
6:00 PM 91.4 °F 90.7 °F 59.0 °F 34% 29.68 in 2.5 mi Calm Calm - N/A   Haze
7:00 PM 86.0 °F 89.4 °F 68.0 °F 55% 29.71 in 2.5 mi Calm Calm - N/A   Haze
8:30 PM 86 °F - 62 °F 34% 29.64 in 1 mi Calm Calm - -   Haze
9:00 PM 87.8 °F 87.6 °F 60.8 °F 40% 29.74 in 1.6 mi Calm Calm - N/A   Haze
10:00 PM 86.0 °F 86.1 °F 60.8 °F 43% 29.77 in 1.6 mi WNW 4.6 mph - N/A   Haze
11:00 PM 84.2 °F 85.0 °F 62.6 °F 48% 29.80 in 1.6 mi West 8.1 mph - N/A   Haze
11:30 PM 83 °F - 61 °F 37% 29.68 in 1 mi Calm Calm - -   Haze